Location: Newark
(21.1200°N, 73.4000°E)
Time: 15:18:00
(UTC+00:00)

Courier 1B Rocket - Pass Details

Date: 23 January 2020
Orbit: 920 x 1202 km, 28.2° (Epoch: 25 February)

Event Time Altitude Azimuth Distance (km) Brightness Sun altitude
Rises 09:21:07 0° 281° (W) 3,786 8.4 39.4°
Reaches altitude 10° 09:24:02 10° 288° (WNW) 2,788 7.7 39.0°
Maximum altitude 09:30:25 45° 359° (N) 1,297 5.8 38.0°
Drops below altitude 10° 09:36:28 10° 71° (ENE) 2,637 6.9 37.1°
Sets 09:39:09 0° 78° (ENE) 3,562 7.6 36.7°
